FW7003 Weather Reports


time (UTC)temp
C
wind
direction
speed
KPH
gust
KPH
rain 1hr
cm
rain 24hr
cm
rain mn
cm
humidity
%
barometer
mb
20211017165605 21 216 4.8 4.8 0.00 0.00 0.00 10 1029.5
20211017165104 21 159 6.4 9.7 0.00 0.00 0.00 10 1029.7
20211017164603 20 191 6.4 9.7 0.00 0.00 0.00 10 1029.6
20211017164102 20 191 4.8 8.0 0.00 0.00 0.00 10 1029.6
20211017163601 20 182 8.0 9.7 0.00 0.00 0.00 10 1029.8
20211017163058 20 156 4.8 8.0 0.00 0.00 0.00 10 1029.6
20211017162557 20 200 4.8 8.0 0.00 0.00 0.00 10 1029.6
20211017162055 20 158 1.6 1.6 0.00 0.00 0.00 10 1029.8
20211017161554 20 157 6.4 8.0 0.00 0.00 0.00 10 1029.8
20211017161052 19 152 8.0 9.7 0.00 0.00 0.00 10 1029.6
20211017160551 18 196 0.0 1.6 0.00 0.00 0.00 10 1029.8
20211017160048 18 166 4.8 4.8 0.00 0.00 0.00 10 1029.9
20211017155546 18 212 1.6 1.6 0.00 0.00 0.00 10 1029.8
20211017155045 17 197 1.6 1.6 0.00 0.00 0.00 10 1029.9
20211017154544 17 228 3.2 4.8 0.00 0.00 0.00 10 1030.1
20211017154043 17 219 3.2 3.2 0.00 0.00 0.00 10 1029.9
20211017153540 17 226 3.2 3.2 0.00 0.00 0.00 10 1029.9
20211017153040 17 240 3.2 3.2 0.00 0.00 0.00 10 1030.1
20211017152537 16 214 1.6 1.6 0.00 0.00 0.00 10 1030.2
20211017152036 16 214 3.2 3.2 0.00 0.00 0.00 10 1030.1
20211017151536 16 231 3.2 3.2 0.00 0.00 0.00 10 1030.2
20211017151034 15 231 0.0 1.6 0.00 0.00 0.00 10 1030.2
20211017150534 15 286 1.6 1.6 0.00 0.00 0.00 10 1030.1
20211017150033 15 286 3.2 3.2 0.00 0.00 0.00 10 1030.2
20211017145532 14 286 4.8 4.8 0.00 0.00 0.00 10 1030.1
20211017145032 13 285 1.6 1.6 0.00 0.00 0.00 10 1030.1
20211017144530 13 285 1.6 1.6 0.00 0.00 0.00 10 1030.1
20211017144030 13 286 1.6 3.2 0.00 0.00 0.00 10 1030.0
20211017143527 13 287 1.6 1.6 0.00 0.00 0.00 10 1030.2
20211017143025 12 289 3.2 3.2 0.00 0.00 0.00 10 1030.1
20211017142522 12 289 3.2 3.2 0.00 0.00 0.00 10 1030.0
20211017142020 12 290 1.6 1.6 0.00 0.00 0.00 10 1030.0
20211017141519 12 290 1.6 3.2 0.00 0.00 0.00 10 1030.1
20211017141014 12 346 1.6 1.6 0.00 0.00 0.00 10 1029.9
20211017140513 12 358 0.0 0.0 0.00 0.00 0.00 10 1029.9
20211017140011 12 276 0.0 0.0 0.00 0.00 0.00 10 1029.8
20211017135509 12 276 0.0 0.0 0.00 0.00 0.00 10 1029.6
20211017135004 12 276 1.6 1.6 0.00 0.00 0.00 10 1029.7
20211017134503 12 276 0.0 1.6 0.00 0.00 0.00 10 1029.6
20211017134002 11 276 1.6 1.6 0.00 0.00 0.00 10 1029.7
20211017133457 11 278 3.2 4.8 0.00 0.00 0.00 10 1029.3
20211017132957 11 279 0.0 1.6 0.00 0.00 0.00 10 1029.5
20211017132456 10 279 1.6 1.6 0.00 0.00 0.00 10 1029.3
20211017131952 10 279 1.6 1.6 0.00 0.00 0.00 10 1029.4
20211017131451 10 279 3.2 3.2 0.00 0.00 0.00 10 1029.2
20211017130951 10 293 1.6 1.6 0.00 0.00 0.00 10 1029.3
20211017130448 10 295 0.0 0.0 0.00 0.00 0.00 10 1029.1
20211017125947 10 295 1.6 1.6 0.00 0.00 0.00 10 1029.0
20211017125446 10 295 1.6 1.6 0.00 0.00 0.00 10 1029.0
20211017124945 10 295 1.6 1.6 0.00 0.00 0.00 10 1029.0
20211017124444 10 295 0.0 0.0 0.00 0.00 0.00 10 1029.1
20211017123941 10 295 0.0 0.0 0.00 0.00 0.00 10 1028.8
20211017123440 10 295 0.0 0.0 0.00 0.00 0.00 10 1028.9
20211017122939 10 295 0.0 1.6 0.00 0.00 0.00 10 1029.0
20211017122439 10 295 0.0 0.0 0.00 0.00 0.00 10 1028.9
20211017121938 10 295 1.6 1.6 0.00 0.00 0.00 10 1028.8
20211017121436 10 295 0.0 0.0 0.00 0.00 0.00 10 1028.9
20211017120934 10 295 1.6 1.6 0.00 0.00 0.00 10 1028.8
20211017120433 10 295 1.6 1.6 0.00 0.00 0.00 10 1028.8
20211017115930 10 295 1.6 1.6 0.00 0.00 0.00 10 1028.7
20211017115428 10 295 1.6 1.6 0.00 0.00 0.00 10 1028.7
20211017114926 10 295 0.0 0.0 0.00 0.00 0.00 10 1028.8
20211017114426 10 295 0.0 0.0 0.00 0.00 0.00 10 1028.8
20211017113924 10 295 0.0 0.0 0.00 0.00 0.00 10 1028.7
20211017113420 10 295 0.0 0.0 0.00 0.00 0.00 10 1029.0
20211017112919 10 295 0.0 0.0 0.00 0.00 0.00 10 1028.6
20211017112417 10 295 0.0 0.0 0.00 0.00 0.00 10 1028.6
20211017111915 10 295 0.0 0.0 0.00 0.00 0.00 10 1028.7
20211017111413 10 295 0.0 0.0 0.00 0.00 0.00 10 1028.6
20211017110912 10 295 0.0 0.0 0.00 0.00 0.00 10 1028.7
20211017110409 10 295 0.0 0.0 0.00 0.00 0.00 10 1028.6
20211017105907 10 295 0.0 0.0 0.00 0.00 0.00 10 1028.4
20211017105404 10 295 0.0 0.0 0.00 0.00 0.00 10 1028.5
20211017104901 10 295 0.0 0.0 0.00 0.00 0.00 10 1028.6
20211017104357 10 295 0.0 0.0 0.00 0.00 0.00 10 1028.2
20211017103857 10 295 0.0 0.0 0.00 0.00 0.00 10 1028.2
20211017103355 10 295 0.0 0.0 0.00 0.00 0.00 10 1028.0
20211017102854 10 295 0.0 0.0 0.00 0.00 0.00 10 1028.4
20211017102353 10 295 1.6 1.6 0.00 0.00 0.00 10 1028.4
20211017101852 10 295 0.0 0.0 0.00 0.00 0.00 10 1028.2
20211017101351 10 295 1.6 1.6 0.00 0.00 0.00 10 1028.6
20211017100849 10 295 1.6 1.6 0.00 0.00 0.00 10 1028.4
20211017100344 10 295 1.6 1.6 0.00 0.00 0.00 10 1028.4
20211017095843 10 295 1.6 1.6 0.00 0.00 0.00 10 1028.6
20211017095343 10 295 1.6 1.6 0.00 0.00 0.00 10 1028.5
20211017094842 10 295 1.6 1.6 0.00 0.00 0.00 10 1028.5
20211017094341 10 295 3.2 3.2 0.00 0.00 0.00 10 1028.6
20211017093841 10 295 1.6 1.6 0.00 0.00 0.00 10 1028.6
20211017093340 10 295 1.6 1.6 0.00 0.00 0.00 10 1028.5
20211017092835 10 295 1.6 1.6 0.00 0.00 0.00 10 1028.6
20211017092334 10 295 3.2 3.2 0.00 0.00 0.00 10 1028.5
20211017091833 10 295 1.6 1.6 0.00 0.00 0.00 10 1028.5
20211017091332 10 295 1.6 1.6 0.00 0.00 0.00 10 1028.5
20211017090831 10 295 1.6 1.6 0.00 0.00 0.00 10 1028.5
20211017090331 10 295 1.6 1.6 0.00 0.00 0.00 10 1028.7
20211017085829 10 295 0.0 1.6 0.00 0.00 0.00 10 1028.7
20211017085328 10 295 1.6 1.6 0.00 0.00 0.00 10 1028.8
20211017084827 10 295 1.6 1.6 0.00 0.00 0.00 10 1028.6
20211017084325 10 295 1.6 1.6 0.00 0.00 0.00 10 1028.7
20211017083825 10 295 1.6 1.6 0.00 0.00 0.00 10 1028.9
20211017083323 10 295 1.6 1.6 0.00 0.00 0.00 10 1028.6
20211017082821 10 295 0.0 0.0 0.00 0.00 0.00 10 1028.7
20211017082319 10 295 1.6 1.6 0.00 0.00 0.00 10 1028.7
20211017081818 10 296 1.6 1.6 0.00 0.00 0.00 10 1028.6
20211017081315 10 296 1.6 1.6 0.00 0.00 0.00 10 1028.6
20211017080815 10 296 1.6 1.6 0.00 0.00 0.00 10 1028.6
20211017080313 10 296 3.2 3.2 0.00 0.00 0.00 10 1029.1
20211017075812 10 296 1.6 1.6 0.00 0.00 0.00 10 1029.1
20211017075310 10 296 1.6 1.6 0.00 0.00 0.00 10 1029.0
20211017074809 10 295 1.6 1.6 0.00 0.00 0.00 10 1028.8
20211017074306 10 297 3.2 3.2 0.00 0.00 0.00 10 1028.7
20211017073804 10 299 4.8 4.8 0.00 0.00 0.00 10 1028.9
20211017073303 10 309 3.2 3.2 0.00 0.00 0.00 10 1029.0
20211017072802 10 310 3.2 3.2 0.00 0.00 0.00 10 1029.2
20211017072300 10 345 3.2 3.2 0.00 0.00 0.00 10 1029.4
20211017071758 11 346 3.2 3.2 0.00 0.00 0.00 10 1029.1
20211017071257 11 346 1.6 1.6 0.00 0.00 0.00 10 1029.1
20211017070756 11 346 3.2 3.2 0.00 0.00 0.00 10 1028.7
20211017070253 11 346 1.6 3.2 0.00 0.00 0.00 10 1028.8
20211017065752 11 346 3.2 3.2 0.00 0.00 0.00 10 1028.9
20211017065251 11 346 1.6 1.6 0.00 0.00 0.00 10 1029.0
20211017064749 11 346 1.6 1.6 0.00 0.00 0.00 10 1029.0
20211017064248 11 346 1.6 1.6 0.00 0.00 0.00 10 1029.0
20211017063747 11 346 1.6 1.6 0.00 0.00 0.00 10 1028.8
20211017063246 11 346 1.6 1.6 0.00 0.00 0.00 10 1028.8
20211017062746 11 346 1.6 1.6 0.00 0.00 0.00 10 1028.8
20211017062245 11 346 1.6 1.6 0.00 0.00 0.00 10 1028.9
20211017061743 11 347 1.6 1.6 0.00 0.00 0.00 10 1028.9
20211017061241 12 346 1.6 3.2 0.00 0.00 0.00 10 1028.6
20211017060739 12 347 3.2 3.2 0.00 0.00 0.00 10 1028.7
20211017060239 12 347 1.6 1.6 0.00 0.00 0.00 10 1028.8
20211017055735 12 347 3.2 3.2 0.00 0.00 0.00 10 1028.6
20211017055231 12 347 1.6 1.6 0.00 0.00 0.00 10 1028.4
20211017054729 12 7 1.6 1.6 0.00 0.00 0.00 10 1028.4
20211017054227 12 7 1.6 1.6 0.00 0.00 0.00 10 1028.4
20211017053724 12 7 1.6 3.2 0.00 0.00 0.00 10 1028.7
20211017053222 12 8 1.6 1.6 0.00 0.00 0.00 10 1028.8
20211017052722 12 8 1.6 1.6 0.00 0.00 0.00 10 1028.6
20211017052221 13 8 1.6 1.6 0.00 0.00 0.00 10 1028.7
20211017051721 13 8 1.6 1.6 0.00 0.00 0.00 10 1028.7
20211017051219 13 8 1.6 1.6 0.00 0.00 0.00 10 1028.6
20211017050717 13 8 1.6 1.6 0.00 0.00 0.00 10 1028.7
20211017050217 13 8 1.6 1.6 0.00 0.00 0.00 10 1028.8
20211017045716 13 8 0.0 1.6 0.00 0.00 0.00 10 1029.0
20211017045215 13 8 0.0 1.6 0.00 0.00 0.00 10 1028.9
20211017044714 13 8 0.0 1.6 0.00 0.00 0.00 10 1028.9
20211017044213 13 8 1.6 1.6 0.00 0.00 0.00 10 1028.9
20211017043711 13 8 1.6 1.6 0.00 0.00 0.00 10 1028.9
20211017043204 12 8 1.6 1.6 0.00 0.00 0.00 10 1029.0
20211017042659 12 8 1.6 3.2 0.00 0.00 0.00 10 1029.0
20211017042159 13 9 1.6 1.6 0.00 0.00 0.00 10 1028.9
20211017041658 13 9 0.0 1.6 0.00 0.00 0.00 10 1029.0
20211017041158 13 9 0.0 0.0 0.00 0.00 0.00 10 1028.9
20211017040657 13 9 0.0 0.0 0.00 0.00 0.00 10 1029.0
20211017040156 13 9 0.0 1.6 0.00 0.00 0.00 10 1028.9
20211017035654 13 9 1.6 1.6 0.00 0.00 0.00 10 1029.0
20211017035152 13 9 1.6 1.6 0.00 0.00 0.00 10 1028.9
20211017034652 13 9 0.0 1.6 0.00 0.00 0.00 10 1028.9
20211017034151 13 9 0.0 1.6 0.00 0.00 0.00 10 1029.0
20211017033649 13 9 1.6 1.6 0.00 0.00 0.00 10 1028.8
20211017033147 13 9 1.6 1.6 0.00 0.00 0.00 10 1028.9
20211017032646 13 9 1.6 1.6 0.00 0.00 0.00 10 1028.9
20211017032145 13 9 1.6 1.6 0.00 0.00 0.00 10 1028.8
20211017031644 13 9 1.6 1.6 0.00 0.00 0.00 10 1028.7
20211017031142 13 9 1.6 1.6 0.00 0.00 0.00 10 1028.7
20211017030640 13 10 0.0 0.0 0.00 0.00 0.00 10 1028.9
20211017030139 13 10 0.0 0.0 0.00 0.00 0.00 10 1028.7
20211017025637 13 10 1.6 1.6 0.00 0.00 0.00 10 1028.8
20211017025135 14 10 1.6 1.6 0.00 0.00 0.00 10 1028.8
20211017024630 15 10 1.6 1.6 0.00 0.00 0.00 10 1028.7
20211017024130 15 10 1.6 1.6 0.00 0.00 0.00 10 1028.8
20211017023629 14 10 1.6 1.6 0.00 0.00 0.00 10 1029.1
20211017023127 15 10 1.6 1.6 0.00 0.00 0.00 10 1028.8
20211017022626 14 10 1.6 1.6 0.00 0.00 0.00 10 1028.7
20211017022126 15 12 3.2 3.2 0.00 0.00 0.00 10 1028.8
20211017021624 16 14 1.6 1.6 0.00 0.00 0.00 10 1028.6
20211017021123 16 14 0.0 0.0 0.00 0.00 0.00 10 1028.8
20211017020621 16 14 1.6 1.6 0.00 0.00 0.00 10 1028.9
20211017020121 16 14 1.6 1.6 0.00 0.00 0.00 10 1028.8
20211017015619 16 14 0.0 0.0 0.00 0.00 0.00 10 1028.9
20211017015117 16 14 0.0 1.6 0.00 0.00 0.00 10 1028.7
20211017014615 16 14 1.6 1.6 0.00 0.00 0.00 10 1028.8
20211017014113 16 14 0.0 0.0 0.00 0.00 0.00 10 1028.8
20211017013612 16 14 1.6 1.6 0.00 0.00 0.00 10 1028.6
20211017013111 16 14 0.0 0.0 0.00 0.00 0.00 10 1028.8
20211017012609 16 14 1.6 1.6 0.00 0.00 0.00 10 1028.5
20211017012107 16 14 1.6 1.6 0.00 0.00 0.00 10 1028.7
20211017011603 16 14 1.6 1.6 0.00 0.00 0.00 10 1028.7
20211017011102 16 14 0.0 1.6 0.00 0.00 0.00 10 1028.4
20211017010602 16 14 0.0 0.0 0.00 0.00 0.00 10 1028.2
20211017010101 16 14 0.0 0.0 0.00 0.00 0.00 10 1028.4
20211017005555 16 14 0.0 0.0 0.00 0.00 0.00 10 1028.4
20211017005052 16 14 0.0 0.0 0.00 0.00 0.00 10 1028.1
20211017004549 17 14 0.0 1.6 0.00 0.00 0.00 10 1028.1
20211017004046 17 14 1.6 1.6 0.00 0.00 0.00 10 1028.4
20211017003546 17 14 1.6 3.2 0.00 0.00 0.00 10 1027.9
20211017003045 17 15 0.0 0.0 0.00 0.00 0.00 10 1027.8
20211017002545 17 15 0.0 1.6 0.00 0.00 0.00 10 1027.9
20211017002043 17 15 0.0 0.0 0.00 0.00 0.00 10 1027.9
20211017001541 17 15 0.0 0.0 0.00 0.00 0.00 10 1027.8
20211017001041 17 15 0.0 0.0 0.00 0.00 0.00 10 1027.7
20211017000539 18 15 0.0 0.0 0.00 0.00 0.00 10 1028.1
20211017000034 18 15 0.0 1.6 0.00 0.00 0.00 10 1027.8
20211016235533 19 16 0.0 0.0 0.00 0.00 0.00 10 1027.9
20211016235033 19 17 1.6 3.2 0.00 0.00 0.00 10 1027.9
20211016234531 20 26 3.2 3.2 0.00 0.00 0.00 10 1028.1
20211016234031 20 22 4.8 4.8 0.00 0.00 0.00 10 1028.0
20211016233530 20 9 4.8 4.8 0.00 0.00 0.00 10 1028.1
20211016233027 20 19 3.2 3.2 0.00 0.00 0.00 10 1027.8
20211016232527 21 347 3.2 4.8 0.00 0.00 0.00 10 1027.9
20211016232025 21 24 4.8 4.8 0.00 0.00 0.00 10 1028.1
20211016231522 21 0 4.8 8.0 0.00 0.00 0.00 10 1028.2
20211016231021 21 14 0.0 1.6 0.00 0.00 0.00 10 1028.1
20211016230520 21 14 3.2 4.8 0.00 0.00 0.00 10 1027.9
20211016230019 21 20 4.8 8.0 0.00 0.00 0.00 10 1028.0
20211016225517 21 10 8.0 9.7 0.00 0.00 0.00 10 1027.9
20211016225016 21 29 4.8 4.8 0.00 0.00 0.00 10 1028.1
20211016224512 21 26 3.2 4.8 0.00 0.00 0.00 10 1028.0
20211016224012 21 310 4.8 8.0 0.00 0.00 0.00 10 1028.1
20211016223510 21 6 4.8 4.8 0.00 0.00 0.00 10 1028.2
20211016223010 21 18 1.6 1.6 0.00 0.00 0.00 10 1028.0
20211016222506 22 334 1.6 1.6 0.00 0.00 0.00 10 1028.2
20211016222005 22 26 6.4 8.0 0.00 0.00 0.00 10 1028.0
20211016221459 21 351 3.2 3.2 0.00 0.00 0.00 10 1028.1
20211016220956 21 335 4.8 4.8 0.00 0.00 0.00 10 1028.0
20211016220455 22 28 9.7 11.3 0.00 0.00 0.00 10 1028.0
20211016215954 22 5 6.4 11.3 0.00 0.00 0.00 10 1028.1
20211016215452 22 318 4.8 8.0 0.00 0.00 0.00 10 1028.4
20211016214952 21 23 6.4 12.9 0.00 0.00 0.00 10 1028.4
20211016214450 21 359 6.4 9.7 0.00 0.00 0.00 10 1028.2
20211016213948 21 12 6.4 8.0 0.00 0.00 0.00 10 1028.2
20211016213447 22 357 9.7 14.5 0.00 0.00 0.00 10 1028.6
20211016212945 21 342 4.8 4.8 0.00 0.00 0.00 10 1028.2
20211016212445 21 35 8.0 12.9 0.00 0.00 0.00 10 1028.4
20211016211943 21 10 9.7 11.3 0.00 0.00 0.00 10 1028.5
20211016211442 22 350 8.0 9.7 0.00 0.00 0.00 10 1028.8
20211016210939 22 10 8.0 9.7 0.00 0.00 0.00 10 1028.7
20211016210437 22 320 1.6 3.2 0.00 0.00 0.00 10 1028.6
20211016205938 21 349 3.2 4.8 0.00 0.00 0.00 10 1028.7
20211016205436 21 336 8.0 12.9 0.00 0.00 0.00 10 1028.7
20211016204935 21 326 8.0 9.7 0.00 0.00 0.00 10 1028.8
20211016204433 21 325 11.3 12.9 0.00 0.00 0.00 10 1028.8
20211016203930 21 54 12.9 16.1 0.00 0.00 0.00 10 1028.9
20211016203430 22 39 6.4 9.7 0.00 0.00 0.00 10 1029.0
20211016202930 22 5 8.0 11.3 0.00 0.00 0.00 10 1028.8
20211016202428 22 346 1.6 1.6 0.00 0.00 0.00 10 1029.0
20211016201926 22 20 12.9 20.9 0.00 0.00 0.00 10 1029.0
20211016201425 21 16 6.4 9.7 0.00 0.00 0.00 10 1029.0
20211016200924 22 326 8.0 9.7 0.00 0.00 0.00 10 1029.0
20211016200423 21 51 1.6 3.2 0.00 0.00 0.00 10 1029.1
20211016195922 22 19 11.3 12.9 0.00 0.00 0.00 10 1029.1
20211016195422 21 14 9.7 14.5 0.00 0.00 0.00 10 1029.3
20211016194914 21 314 4.8 4.8 0.00 0.00 0.00 10 1029.2
20211016194413 21 333 3.2 4.8 0.00 0.00 0.00 10 1029.4
20211016193913 21 15 14.5 20.9 0.00 0.00 0.00 10 1029.6
20211016193411 21 354 4.8 9.7 0.00 0.00 0.00 10 1029.6
20211016192909 21 356 6.4 9.7 0.00 0.00 0.00 10 1029.5
20211016192408 21 352 6.4 9.7 0.00 0.00 0.00 10 1029.5
20211016191907 21 7 3.2 3.2 0.00 0.00 0.00 10 1029.6
20211016191406 21 4 8.0 12.9 0.00 0.00 0.00 10 1029.7
20211016190906 21 10 12.9 20.9 0.00 0.00 0.00 10 1030.1
20211016190405 21 16 11.3 16.1 0.00 0.00 0.00 10 1030.3
20211016185902 21 7 11.3 16.1 0.00 0.00 0.00 10 1030.1
20211016185402 21 2 1.6 1.6 0.00 0.00 0.00 10 1030.2
20211016184859 21 11 4.8 4.8 0.00 0.00 0.00 10 1030.4
20211016184359 21 307 9.7 14.5 0.00 0.00 0.00 10 1030.3
20211016183857 20 347 8.0 11.3 0.00 0.00 0.00 10 1030.4
20211016183357 20 357 4.8 8.0 0.00 0.00 0.00 10 1030.6
20211016182853 20 347 6.4 9.7 0.00 0.00 0.00 10 1031.0
20211016182353 20 12 17.7 17.7 0.00 0.00 0.00 10 1030.7
20211016181852 20 16 4.8 8.0 0.00 0.00 0.00 10 1030.8
20211016181347 20 58 3.2 4.8 0.00 0.00 0.00 10 1031.1
20211016180842 20 341 6.4 9.7 0.00 0.00 0.00 10 1031.1
20211016180340 20 352 3.2 4.8 0.00 0.00 0.00 10 1030.9
20211016175840 20 37 11.3 12.9 0.00 0.00 0.00 10 1031.3
20211016175337 20 12 8.0 12.9 0.00 0.00 0.00 10 1031.4
20211016174837 20 350 4.8 4.8 0.00 0.00 0.00 10 1031.0
20211016174331 20 20 6.4 9.7 0.00 0.00 0.00 10 1031.2
20211016173828 20 352 3.2 3.2 0.00 0.00 0.00 10 1031.5
20211016173326 20 34 8.0 12.9 0.00 0.00 0.00 10 1031.8
20211016172825 20 315 8.0 9.7 0.00 0.00 0.00 10 1031.5
20211016172323 20 63 8.0 12.9 0.00 0.00 0.00 10 1031.7
20211016171823 20 11 4.8 8.0 0.00 0.00 0.00 10 1031.7
20211016171321 20 296 8.0 11.3 0.00 0.00 0.00 10 1031.6
20211016170819 20 343 6.4 9.7 0.00 0.00 0.00 10 1031.7
20211016170317 20 17 4.8 8.0 0.00 0.00 0.00 10 1031.6
20211016165817 19 39 11.3 14.5 0.00 0.00 0.00 10 1031.5